Wind_Speed
26 24 24 22 20 17 16 14 12 10 9 7 5 4 5 5 6 7 7 5 4 4 5 4 3 2 3 6 8 11 12 14 14 13 13 12 14 16 17 18 19 19 19 19
26 25 24 23 20 19 17 16 16 15 14 12 10 8 6 6 6 6 7 6 5 3 2 2 2 5 7 10 11 13 14 14 13 13 13 14 17 19 19 20 20 20 20 20
25 24 24 23 21 19 18 18 19 19 19 16 14 12 11 9 8 6 4 4 3 3 4 5 6 7 10 11 12 13 13 13 14 15 16 18 19 20 21 21 21 21 21 21
23 23 22 22 20 17 15 14 16 17 19 19 18 16 16 16 15 11 8 5 3 2 3 3 5 6 7 9 10 11 13 14 16 17 18 19 20 21 21 21 21 22 22 22
21 21 22 21 20 17 13 12 13 15 16 18 18 19 19 19 18 16 13 10 8 8 7 6 6 7 8 9 11 12 14 16 17 18 19 20 20 20 20 20 20 21 21 21
20 19 19 19 18 17 15 11 11 12 14 15 18 18 17 18 17 15 13 11 10 9 8 8 8 9 10 11 13 14 15 16 17 18 19 19 19 19 19 19 19 19 19 19
19 19 18 17 16 16 13 11 10 10 11 13 14 14 14 14 14 13 11 10 9 9 8 8 9 10 11 12 13 14 16 17 18 19 19 20 20 20 20 20 19 18 18 19
20 19 18 15 13 13 11 10 8 8 9 10 10 10 11 11 12 12 11 11 11 10 10 10 11 12 13 15 16 17 17 17 18 19 19 20 21 20 19 18 17 17 18 19
23 21 18 14 11 10 8 6 5 5 6 6 7 8 9 10 11 12 12 13 12 12 12 13 14 16 17 18 18 18 18 18 18 19 19 19 18 17 16 15 14 15 16 17
27 25 20 15 11 9 7 4 3 2 2 3 5 6 7 9 11 12 13 13 13 13 13 14 16 17 18 18 18 19 19 19 19 18 17 17 15 14 13 12 12 13 14 14
30 29 25 20 14 9 6 4 2 1 1 1 3 5 6 8 10 11 13 14 14 14 14 14 15 16 16 17 17 19 20 20 20 18 17 16 14 13 12 11 11 12 12 14
32 32 30 25 17 11 6 4 3 2 2 3 4 5 6 8 9 10 12 14 14 14 14 14 15 15 15 15 17 19 20 20 20 19 18 17 16 14 13 13 12 13 14 15
31 33 33 31 23 15 8 5 4 4 4 4 5 5 6 7 8 10 11 13 14 13 13 14 14 14 14 15 17 18 20 20 21 20 19 18 17 16 15 15 15 16 16 17
29 31 33 34 30 21 14 8 5 6 5 5 5 6 5 6 7 9 10 12 12 12 12 13 13 13 14 15 16 18 19 20 20 20 20 20 19 18 18 17 18 19 20 20
25 28 30 32 33 27 19 13 8 6 7 7 7 7 6 6 6 7 8 10 10 10 10 11 12 13 13 14 15 17 18 19 19 19 19 19 20 19 19 20 20 22 23 24
22 25 27 30 31 31 25 19 13 8 7 8 8 8 6 5 5 5 6 7 9 9 9 11 12 12 12 13 14 16 17 17 18 18 18 18 19 19 20 21 22 23 25 26
20 22 24 26 28 29 28 24 19 13 7 7 7 7 5 5 4 4 4 5 6 7 8 10 10 11 12 13 13 14 15 16 16 17 17 18 18 19 20 21 23 24 26 27
18 19 20 22 26 27 27 25 23 19 11 6 5 5 4 4 5 4 4 3 4 5 7 8 9 10 11 12 12 13 14 14 15 15 16 17 18 19 19 20 22 24 25 27
18 18 18 19 22 24 26 25 24 22 18 11 5 3 3 4 4 5 5 5 4 4 5 7 8 10 11 11 11 12 12 13 14 15 16 16 17 18 18 19 20 21 23 24
19 18 18 17 18 20 23 23 23 22 20 15 8 4 3 4 5 6 6 6 5 5 4 5 7 9 10 10 10 10 10 11 13 15 16 17 17 17 17 18 18 19 20 21
20 20 19 17 17 18 20 21 21 21 20 18 12 7 5 5 5 7 7 7 7 7 6 5 6 7 9 9 9 9 8 9 11 13 15 16 17 17 17 17 17 17 17 17
23 22 21 20 18 17 18 19 20 19 19 18 15 12 8 7 7 8 8 9 10 9 9 8 6 6 7 8 8 7 7 7 9 11 13 15 16 16 16 16 16 16 16 15
26 25 24 23 22 20 19 18 19 19 18 17 16 14 12 11 9 9 8 9 11 12 11 10 9 7 6 6 7 7 6 6 7 9 11 13 15 15 14 13 14 15 15 15
30 28 26 26 25 24 22 21 20 20 19 18 17 17 15 13 11 10 10 9 11 12 13 12 11 10 8 7 7 7 6 6 7 8 10 12 13 14 13 12 12 12 13 14
33 31 29 28 28 28 27 25 23 22 21 20 19 19 18 17 14 12 12 11 9 11 13 14 13 12 10 9 8 8 7 7 8 9 9 10 12 13 12 12 11 11 12 13
35 33 32 31 31 31 30 29 28 26 24 23 22 21 20 20 18 15 14 12 10 9 12 14 14 14 13 12 11 10 9 9 8 9 10 10 10 11 11 11 11 11 11 12
39 36 34 33 33 33 33 33 32 30 28 26 25 23 22 22 20 18 16 14 11 9 10 14 16 16 15 14 13 13 12 11 10 9 10 10 10 10 10 10 10 10 11 11
Wind_Direction
45 49 54 58 63 67 72 77 78 69 62 65 73 89 114 134 153 167 170 168 157 132 128 136 163 218 272 292 299 303 308 313 313 311 310 306 304 304 302 299 297 297 297 296
49 52 55 58 61 67 72 73 72 71 68 68 76 79 89 104 135 167 181 183 180 179 182 209 272 287 295 298 299 300 304 308 309 307 303 303 304 303 300 298 296 296 296 296
48 50 51 54 56 64 73 74 72 71 68 70 77 76 79 90 108 124 150 187 208 232 255 273 284 296 301 299 297 298 301 304 305 304 304 304 304 302 300 298 296 294 294 295
38 40 44 43 45 53 63 69 69 69 73 75 79 77 76 80 85 86 84 85 72 17 334 309 301 306 312 311 311 309 307 306 307 306 305 305 304 302 299 296 294 293 294 294
26 29 31 32 34 39 48 62 70 77 81 82 82 78 77 76 75 72 68 63 55 42 32 24 12 357 343 332 323 315 311 309 307 306 305 304 303 301 299 296 294 293 293 293
20 21 24 27 29 33 41 56 66 77 82 86 86 84 79 77 74 69 64 57 46 35 24 13 359 347 337 330 323 318 313 309 306 304 303 303 302 300 299 296 294 293 292 293
10 11 16 21 24 26 37 50 71 80 84 85 84 80 76 73 70 65 57 47 37 26 15 4 356 348 340 333 327 322 317 313 310 309 308 307 306 304 302 299 295 293 292 293
7 3 5 8 14 21 33 49 72 86 87 81 74 69 66 62 57 51 43 37 31 24 17 11 5 357 349 343 339 335 331 328 323 320 317 315 313 311 308 304 298 295 294 295
11 6 1 360 2 11 27 48 68 87 91 80 67 58 54 50 44 40 38 35 31 26 20 13 7 0 355 352 350 349 346 341 337 333 329 326 323 320 316 311 306 304 303 302
15 11 6 2 357 0 10 34 64 92 91 76 62 54 48 42 38 37 35 32 27 22 17 13 8 4 1 0 0 360 358 355 353 350 346 342 339 336 331 327 324 322 320 319
16 15 14 10 4 357 355 2 6 351 1 29 39 40 37 33 33 33 31 28 24 19 18 17 15 11 10 10 10 9 9 9 8 7 5 4 2 360 356 352 348 345 343 340
15 16 17 15 12 5 350 336 328 313 316 332 350 11 21 24 27 29 28 24 20 19 21 21 20 20 21 20 19 18 19 19 19 20 21 21 22 21 20 17 12 6 1 356
11 14 17 17 17 13 0 329 310 306 312 326 335 347 3 14 22 26 25 22 20 20 22 24 25 26 27 27 26 25 24 25 26 28 30 30 30 30 29 26 21 15 11 7
3 8 13 16 18 18 14 358 318 302 304 317 330 338 343 358 11 19 21 20 20 21 22 25 27 28 29 30 29 28 27 28 30 32 33 34 35 35 32 29 26 25 21 16
355 0 6 11 17 20 19 13 348 311 299 307 317 328 330 341 357 10 16 17 20 21 21 24 26 28 29 29 28 28 28 29 30 31 32 34 35 36 35 33 31 30 27 25
344 350 357 4 10 17 21 20 11 341 310 304 309 315 320 324 337 353 6 11 15 18 18 19 21 23 25 25 25 26 27 28 28 29 29 31 33 34 34 34 33 32 32 33
333 341 348 355 2 9 16 21 20 9 341 313 311 307 309 306 308 317 339 356 4 9 13 14 15 17 19 20 21 23 26 27 28 28 28 28 29 31 33 35 36 37 38 40
315 326 335 344 352 359 7 14 19 20 15 354 326 310 300 298 296 292 296 319 341 354 4 7 8 10 12 14 16 21 25 28 29 29 28 28 28 30 32 34 37 39 42 45
299 310 322 333 343 350 357 4 11 17 18 15 359 329 304 301 297 287 284 285 295 321 345 358 4 6 7 9 12 17 24 29 32 31 29 28 27 28 29 31 34 38 41 45
288 295 307 318 329 338 346 354 1 8 14 16 15 356 317 300 304 299 280 273 275 287 312 337 354 1 2 4 8 14 23 32 34 33 31 29 28 28 28 30 33 36 39 42
282 283 292 302 311 321 331 340 349 358 5 10 12 4 342 317 310 303 281 268 266 269 280 301 327 346 354 357 2 9 19 29 31 31 29 27 27 28 29 31 34 36 37 38
278 276 277 284 294 302 313 323 332 342 351 359 5 2 350 326 315 315 290 269 266 264 264 270 287 312 335 344 351 359 7 15 20 22 22 22 22 23 25 28 32 34 34 35
273 272 270 271 276 284 292 302 312 322 332 341 349 354 354 348 333 320 306 283 267 260 257 255 259 273 297 320 332 340 344 349 357 6 13 17 18 18 19 21 25 27 29 30
268 269 269 267 266 270 276 283 292 302 311 321 330 338 344 345 344 342 332 305 272 258 251 245 244 252 267 287 306 318 325 329 335 343 356 7 14 17 17 16 16 18 21 22
264 265 266 265 264 263 266 270 276 284 293 302 311 320 328 335 336 335 332 328 293 261 245 237 237 244 254 265 280 295 307 314 321 327 336 352 6 14 17 16 13 12 13 14
262 262 262 262 262 261 261 263 266 271 279 287 296 304 312 319 327 332 334 332 317 275 247 236 236 241 248 256 265 275 288 300 309 315 321 331 348 4 12 14 13 10 9 9
259 259 259 259 260 259 259 258 259 262 267 275 283 290 297 304 312 320 327 329 325 297 260 242 238 241 247 253 259 265 272 282 294 304 310 315 326 342 357 4 7 6 5 4
Height
5774 5770 5765 5762 5760 5759 5758 5758 5758 5759 5759 5759 5760 5761 5762 5764 5767 5769 5771 5773 5774 5776 5777 5778 5779 5780 5781 5782 5782 5782 5783 5783 5783 5783 5782 5781 5780 5779 5778 5776 5774 5772 5771 5769
5782 5777 5773 5770 5768 5766 5765 5764 5763 5763 5762 5761 5761 5763 5764 5766 5768 5770 5772 5774 5776 5777 5778 5778 5779 5780 5780 5780 5781 5781 5781 5781 5780 5780 5779 5778 5776 5775 5773 5771 5769 5767 5765 5764
5790 5785 5781 5778 5775 5773 5771 5770 5769 5768 5767 5765 5765 5766 5767 5768 5769 5772 5773 5775 5777 5778 5778 5779 5779 5779 5779 5779 5779 5779 5779 5778 5778 5777 5775 5773 5771 5769 5767 5765 5763 5762 5760 5759
5797 5793 5789 5787 5781 5779 5777 5775 5774 5772 5771 5771 5770 5771 5771 5771 5772 5774 5775 5776 5777 5778 5778 5778 5779 5779 5778 5778 5777 5777 5776 5775 5774 5772 5770 5768 5766 5764 5762 5760 5758 5756 5754 5753
5802 5798 5795 5791 5788 5785 5783 5781 5779 5778 5777 5776 5775 5775 5775 5775 5775 5776 5777 5778 5779 5779 5778 5778 5778 5778 5777 5776 5776 5775 5773 5772 5770 5768 5766 5764 5762 5759 5757 5755 5753 5750 5748 5746
5807 5803 5800 5797 5793 5790 5789 5786 5785 5783 5782 5781 5780 5780 5780 5779 5778 5779 5780 5780 5780 5780 5780 5779 5778 5777 5776 5775 5773 5772 5770 5768 5766 5764 5762 5759 5757 5755 5752 5749 5747 5745 5742 5740
5810 5806 5803 5800 5797 5795 5794 5793 5790 5788 5788 5787 5785 5785 5785 5783 5783 5782 5782 5782 5782 5781 5781 5780 5778 5777 5775 5773 5771 5769 5766 5764 5761 5759 5756 5754 5751 5749 5746 5744 5741 5739 5737 5734
5812 5808 5807 5802 5800 5799 5797 5794 5793 5793 5792 5791 5790 5790 5789 5788 5787 5786 5784 5783 5782 5782 5781 5779 5778 5776 5773 5770 5767 5764 5761 5759 5756 5753 5751 5748 5745 5743 5740 5738 5735 5733 5731 5729
5815 5812 5806 5803 5801 5799 5798 5797 5796 5796 5795 5795 5794 5793 5792 5792 5790 5789 5787 5785 5784 5782 5781 5779 5776 5774 5771 5767 5764 5761 5758 5755 5753 5750 5746 5743 5740 5738 5735 5733 5730 5728 5726 5723
5816 5811 5806 5803 5801 5800 5799 5798 5798 5797 5797 5797 5796 5796 5795 5794 5793 5791 5790 5788 5786 5784 5781 5778 5776 5773 5769 5766 5763 5760 5757 5754 5751 5747 5744 5741 5737 5734 5732 5730 5727 5725 5722 5719
5819 5814 5808 5804 5801 5800 5799 5798 5798 5798 5799 5798 5798 5797 5797 5796 5795 5793 5792 5790 5788 5785 5782 5779 5776 5773 5770 5767 5764 5761 5758 5754 5751 5747 5743 5740 5736 5733 5731 5728 5725 5723 5720 5717
5822 5817 5811 5806 5801 5799 5799 5798 5798 5799 5799 5799 5799 5799 5798 5797 5796 5795 5793 5791 5789 5786 5784 5781 5778 5775 5772 5769 5766 5763 5760 5756 5752 5748 5745 5741 5738 5735 5732 5729 5726 5723 5719 5715
5825 5819 5814 5808 5803 5800 5799 5798 5798 5798 5799 5799 5799 5799 5799 5798 5797 5796 5794 5792 5790 5788 5786 5783 5780 5777 5774 5771 5768 5765 5762 5759 5755 5751 5747 5744 5740 5737 5734 5731 5727 5723 5719 5715
5826 5822 5817 5812 5806 5802 5799 5798 5797 5798 5798 5798 5799 5799 5799 5798 5797 5796 5795 5793 5792 5790 5788 5785 5782 5780 5777 5774 5771 5768 5765 5762 5758 5755 5751 5747 5744 5740 5737 5733 5729 5725 5721 5715
5828 5824 5820 5815 5810 5805 5801 5799 5797 5797 5797 5798 5798 5798 5798 5798 5797 5797 5796 5795 5793 5792 5790 5787 5785 5782 5779 5777 5774 5770 5767 5764 5761 5758 5755 5751 5748 5744 5740 5737 5733 5728 5723 5718
5829 5825 5821 5817 5813 5808 5804 5800 5798 5796 5796 5796 5797 5797 5797 5797 5797 5797 5796 5796 5794 5793 5791 5789 5787 5785 5782 5779 5776 5773 5770 5767 5764 5761 5758 5754 5751 5748 5744 5741 5736 5732 5727 5722
5828 5825 5822 5819 5815 5811 5807 5803 5799 5797 5795 5795 5795 5796 5796 5796 5797 5797 5796 5796 5795 5794 5792 5790 5789 5787 5784 5782 5779 5776 5772 5769 5767 5764 5761 5758 5754 5751 5748 5744 5741 5737 5732 5728
5827 5825 5823 5820 5816 5812 5809 5805 5801 5798 5795 5794 5794 5794 5794 5795 5796 5796 5796 5796 5795 5794 5793 5792 5790 5788 5786 5784 5781 5778 5775 5772 5769 5766 5763 5760 5757 5754 5751 5748 5745 5742 5738 5734
5824 5823 5821 5819 5816 5813 5810 5806 5803 5800 5796 5794 5793 5793 5793 5793 5794 5794 5794 5795 5795 5794 5793 5792 5790 5789 5787 5785 5783 5780 5777 5774 5772 5769 5766 5763 5760 5758 5755 5752 5749 5746 5743 5740
5820 5819 5818 5817 5815 5813 5810 5807 5803 5800 5798 5795 5793 5792 5791 5792 5792 5792 5792 5793 5793 5793 5792 5791 5790 5789 5787 5786 5784 5782 5780 5777 5774 5771 5769 5766 5763 5760 5758 5755 5753 5750 5748 5745
5815 5815 5814 5814 5813 5811 5809 5807 5804 5801 5798 5796 5794 5792 5791 5790 5790 5790 5789 5790 5790 5790 5790 5790 5790 5789 5788 5786 5785 5783 5781 5779 5777 5774 5771 5768 5766 5763 5761 5758 5756 5753 5751 5749
5809 5809 5809 5809 5809 5808 5807 5805 5803 5800 5798 5796 5794 5792 5790 5789 5788 5787 5786 5786 5786 5787 5787 5788 5788 5788 5787 5786 5785 5783 5782 5780 5778 5776 5774 5771 5768 5765 5763 5761 5759 5756 5754 5752
5801 5802 5803 5804 5804 5804 5803 5802 5801 5799 5797 5795 5793 5791 5789 5787 5785 5784 5783 5782 5782 5782 5783 5784 5785 5785 5786 5785 5784 5783 5782 5781 5779 5777 5775 5773 5770 5767 5765 5763 5761 5759 5757 5755
5792 5794 5795 5796 5797 5798 5798 5798 5797 5796 5794 5792 5790 5789 5787 5785 5783 5781 5779 5777 5776 5777 5778 5779 5781 5782 5783 5783 5783 5782 5781 5780 5779 5778 5776 5774 5771 5768 5766 5764 5762 5761 5759 5757
5782 5784 5786 5788 5789 5790 5791 5792 5792 5792 5791 5789 5788 5786 5784 5782 5781 5779 5776 5774 5772 5772 5773 5774 5776 5778 5780 5781 5781 5780 5779 5778 5778 5777 5776 5774 5772 5769 5767 5765 5763 5762 5760 5758
5771 5774 5776 5778 5780 5781 5783 5784 5785 5785 5785 5785 5784 5782 5781 5779 5778 5776 5774 5772 5769 5768 5769 5770 5772 5774 5776 5777 5778 5778 5777 5776 5776 5775 5775 5774 5772 5770 5768 5766 5764 5762 5761 5759
5760 5763 5765 5767 5769 5770 5773 5775 5776 5777 5778 5779 5778 5778 5776 5775 5774 5773 5771 5769 5767 5766 5765 5766 5768 5769 5771 5772 5773 5774 5774 5774 5773 5773 5772 5772 5771 5770 5768 5766 5764 5762 5761 5760